KK5DC Weather Reports


time (UTC)temp
C
wind
direction
speed
KPH
gust
KPH
rain 1hr
cm
rain 24hr
cm
rain mn
cm
humidity
%
barometer
mb
20260504151013 22 202 9.7 24.1 0.00 0.00 0.00 67 1015.5
20260504151008 22 232 1.6 9.7 0.00 0.00 0.00 67 1016.0
20260504150513 22 179 8.0 24.1 0.00 0.00 0.00 67 1015.7
20260504150507 22 123 3.2 9.7 0.00 0.00 0.00 67 1016.3
20260504141006 20 139 8.0 20.9 0.00 0.00 0.00 73 1015.8
20260504140504 19 207 8.0 19.3 0.00 0.00 0.00 73 1015.8
20260504130504 16 168 4.8 11.3 0.00 0.00 0.00 79 1015.8
20260504110504 13 186 0.0 0.0 0.00 0.00 0.00 86 1015.8
20260504100504 15 202 0.0 3.2 0.00 0.00 0.00 82 1016.2
20260504082008 15 156 3.2 6.4 0.00 0.00 0.00 79 1016.0
20260504081522 15 158 3.2 9.7 0.00 0.00 0.00 78 1016.1
20260504081520 15 175 0.0 4.8 0.00 0.00 0.00 78 1016.6
20260504081011 15 198 0.0 3.2 0.00 0.00 0.00 79 1016.7
20260504081002 15 167 1.6 9.7 0.00 0.00 0.00 79 1016.2
20260504080507 15 176 1.6 6.4 0.00 0.00 0.00 79 1016.5
20260504050509 17 148 3.2 12.9 0.00 0.00 0.00 73 1018.0
20260504050504 17 108 0.0 8.0 0.00 0.00 0.00 73 1018.5
20260504050021 17 164 1.6 4.8 0.00 0.00 0.00 72 1018.6
20260504050019 17 167 3.2 12.9 0.00 0.00 0.00 72 1018.2
20260504045507 17 166 3.2 14.5 0.00 0.00 0.00 72 1018.3
20260504045504 17 204 0.0 4.8 0.00 0.00 0.00 72 1018.7
20260504045009 17 265 1.6 3.2 0.00 0.00 0.00 72 1018.7
20260504045007 17 157 3.2 14.5 0.00 0.00 0.00 72 1018.3
20260504044535 17 165 0.0 3.2 0.00 0.00 0.00 72 1018.7
20260504044526 17 158 3.2 14.5 0.00 0.00 0.00 72 1018.3
20260504044008 17 164 1.6 8.0 0.00 0.00 0.00 72 1018.8
20260504043507 17 180 4.8 11.3 0.00 0.00 0.00 72 1018.4
20260504043033 17 153 3.2 16.1 0.00 0.00 0.00 72 1018.4
20260504043030 17 178 1.6 4.8 0.00 0.00 0.00 72 1018.8
20260504042511 17 179 0.0 4.8 0.00 0.00 0.00 72 1018.8
20260504042006 17 161 1.6 6.4 0.00 0.00 0.00 72 1018.9
20260504042003 17 182 6.4 12.9 0.00 0.00 0.00 72 1018.4
20260504041524 17 122 3.2 11.3 0.00 0.00 0.00 71 1018.4
20260504041511 17 200 0.0 8.0 0.00 0.00 0.00 71 1018.8
20260504041006 17 180 0.0 8.0 0.00 0.00 0.00 71 1018.9
20260504040509 17 130 4.8 12.9 0.00 0.00 0.00 71 1018.6
20260504040502 17 183 0.0 6.4 0.00 0.00 0.00 71 1019.0
20260504040020 17 12 1.6 6.4 0.00 0.00 0.00 70 1019.1
20260504040018 17 148 4.8 9.7 0.00 0.00 0.00 70 1018.6
20260504035511 17 185 0.0 6.4 0.00 0.00 0.00 70 1019.0
20260504035508 17 134 3.2 6.4 0.00 0.00 0.00 70 1018.5
20260504035009 17 174 1.6 9.7 0.00 0.00 0.00 69 1018.5
20260504035007 17 191 1.6 6.4 0.00 0.00 0.00 69 1019.0
20260504034524 17 163 0.0 4.8 0.00 0.00 0.00 69 1019.0
20260504034517 17 163 3.2 12.9 0.00 0.00 0.00 69 1018.5
20260504034011 17 234 0.0 4.8 0.00 0.00 0.00 69 1019.0
20260504033513 17 169 0.0 4.8 0.00 0.00 0.00 68 1018.9
20260504033511 17 148 3.2 8.0 0.00 0.00 0.00 68 1018.4
20260504033029 18 151 3.2 11.3 0.00 0.00 0.00 68 1018.3
20260504033012 18 190 1.6 8.0 0.00 0.00 0.00 68 1018.8
20260504032507 18 156 3.2 11.3 0.00 0.00 0.00 67 1018.5
20260504032011 18 148 1.6 8.0 0.00 0.00 0.00 67 1018.4
20260504031532 18 190 0.0 4.8 0.00 0.00 0.00 66 1018.7
20260504031530 18 159 3.2 8.0 0.00 0.00 0.00 66 1018.2
20260504031013 18 154 1.6 8.0 0.00 0.00 0.00 66 1018.3
20260504031005 18 203 0.0 3.2 0.00 0.00 0.00 66 1018.7
20260504030512 17 123 1.6 8.0 0.00 0.00 0.00 67 1018.2
20260504030504 17 184 0.0 3.2 0.00 0.00 0.00 67 1018.8
20260504030027 17 138 3.2 11.3 0.00 0.00 0.00 69 1018.2
20260504030014 17 136 0.0 3.2 0.00 0.00 0.00 69 1018.7
20260504025509 17 131 3.2 11.3 0.00 0.00 0.00 69 1018.2
20260504025506 17 113 0.0 4.8 0.00 0.00 0.00 69 1018.6
20260504025006 16 213 0.0 4.8 0.00 0.00 0.00 70 1018.7
20260504024523 16 137 0.0 3.2 0.00 0.00 0.00 72 1018.7
20260504024503 16 140 0.0 3.2 0.00 0.00 0.00 72 1018.1
20260504024012 16 212 0.0 3.2 0.00 0.00 0.00 74 1018.8
20260504024004 16 148 0.0 3.2 0.00 0.00 0.00 74 1018.1
20260504023507 16 189 0.0 0.0 0.00 0.00 0.00 72 1018.8
20260504023503 16 158 0.0 3.2 0.00 0.00 0.00 72 1018.1
20260504023025 16 189 0.0 0.0 0.00 0.00 0.00 74 1018.7
20260504023003 16 155 0.0 0.0 0.00 0.00 0.00 74 1018.0
20260504022513 16 189 0.0 0.0 0.00 0.00 0.00 74 1018.7
20260504022502 16 155 0.0 0.0 0.00 0.00 0.00 74 1018.0
20260504022009 16 189 0.0 0.0 0.00 0.00 0.00 76 1018.6
20260504022002 16 155 0.0 0.0 0.00 0.00 0.00 76 1017.9
20260504021525 16 189 0.0 0.0 0.00 0.00 0.00 73 1018.4
20260504021508 16 155 0.0 3.2 0.00 0.00 0.00 73 1017.6
20260504021006 16 189 0.0 0.0 0.00 0.00 0.00 73 1018.4
20260504021001 16 155 0.0 3.2 0.00 0.00 0.00 73 1017.6
20260504020510 16 189 0.0 0.0 0.00 0.00 0.00 74 1018.3
20260504020504 16 155 0.0 3.2 0.00 0.00 0.00 74 1017.4
20260504020015 17 189 0.0 1.6 0.00 0.00 0.00 71 1018.3
20260504020013 17 155 0.0 3.2 0.00 0.00 0.00 71 1017.4
20260504015506 17 155 0.0 3.2 0.00 0.00 0.00 71 1017.3
20260504015503 17 189 0.0 3.2 0.00 0.00 0.00 71 1018.3
20260504015007 17 189 0.0 3.2 0.00 0.00 0.00 71 1018.3
20260504015004 17 155 0.0 3.2 0.00 0.00 0.00 71 1017.3
20260504014518 17 189 0.0 0.0 0.00 0.00 0.00 69 1018.3
20260504014513 17 155 0.0 3.2 0.00 0.00 0.00 69 1017.3
20260504014008 17 189 0.0 0.0 0.00 0.00 0.00 69 1018.3
20260504014006 17 155 0.0 3.2 0.00 0.00 0.00 69 1017.3
20260504013506 17 189 0.0 0.0 0.00 0.00 0.00 68 1018.3
20260504013502 17 155 0.0 3.2 0.00 0.00 0.00 68 1017.3
20260504013032 18 189 0.0 3.2 0.00 0.00 0.00 66 1018.1
20260504013017 18 155 0.0 3.2 0.00 0.00 0.00 66 1017.2
20260504012504 18 189 0.0 3.2 0.00 0.00 0.00 66 1018.2
20260504012502 18 155 0.0 3.2 0.00 0.00 0.00 66 1017.3
20260504012008 18 189 0.0 3.2 0.00 0.00 0.00 65 1018.2
20260504012003 18 155 0.0 3.2 0.00 0.00 0.00 66 1017.3
20260504011524 18 205 0.0 3.2 0.00 0.00 0.00 64 1018.1
20260504011515 18 155 0.0 3.2 0.00 0.00 0.00 64 1017.2
20260504011009 19 212 0.0 3.2 0.00 0.00 0.00 64 1018.2
20260504011001 19 155 0.0 3.2 0.00 0.00 0.00 64 1017.3
20260504010504 19 153 0.0 0.0 0.00 0.00 0.00 63 1018.1
20260504010025 20 153 0.0 0.0 0.00 0.00 0.00 58 1018.1
20260504010003 20 155 0.0 3.2 0.00 0.00 0.00 58 1017.1
20260504005507 20 156 0.0 3.2 0.00 0.00 0.00 60 1018.1
20260504005503 20 155 0.0 3.2 0.00 0.00 0.00 60 1017.1
20260504005009 21 155 0.0 3.2 0.00 0.00 0.00 57 1017.2
20260504005003 21 156 0.0 3.2 0.00 0.00 0.00 57 1018.1
20260504004520 21 155 0.0 3.2 0.00 0.00 0.00 55 1017.2
20260504004516 21 163 0.0 3.2 0.00 0.00 0.00 55 1018.2
20260504004005 21 164 0.0 3.2 0.00 0.00 0.00 55 1018.2
20260504004002 21 155 0.0 3.2 0.00 0.00 0.00 55 1017.2
20260504003508 22 121 0.0 3.2 0.00 0.00 0.00 52 1018.2
20260504003506 22 155 0.0 3.2 0.00 0.00 0.00 52 1017.3
20260504003023 22 156 0.0 3.2 0.00 0.00 0.00 51 1017.3
20260504003019 22 134 0.0 1.6 0.00 0.00 0.00 51 1018.2
20260504002508 22 213 0.0 3.2 0.00 0.00 0.00 50 1018.3
20260504002502 22 156 0.0 3.2 0.00 0.00 0.00 50 1017.5
20260504002009 22 156 0.0 6.4 0.00 0.00 0.00 50 1017.6
20260504002004 22 213 0.0 3.2 0.00 0.00 0.00 50 1018.4
20260504001518 22 213 0.0 3.2 0.00 0.00 0.00 48 1018.5
20260504001504 22 156 1.6 8.0 0.00 0.00 0.00 48 1017.7
20260504001009 23 214 0.0 3.2 0.00 0.00 0.00 46 1018.5
20260504001002 23 184 3.2 8.0 0.00 0.00 0.00 46 1017.7
20260504000505 23 128 0.0 6.4 0.00 0.00 0.00 46 1018.5
20260504000502 23 145 3.2 11.3 0.00 0.00 0.00 46 1017.7
20260504000009 23 159 1.6 6.4 0.00 0.00 0.00 44 1018.6
20260503235504 23 179 0.0 4.8 0.00 0.00 0.00 44 1018.7
20260503235502 23 172 3.2 11.3 0.00 0.00 0.00 44 1017.9
20260503235004 23 286 0.0 4.8 0.00 0.00 0.00 47 1018.7
20260503234512 23 175 3.2 11.3 0.00 0.00 0.00 45 1017.9
20260503234508 23 190 0.0 6.4 0.00 0.00 0.00 45 1018.8
20260503234006 23 165 1.6 6.4 0.00 0.00 0.00 47 1018.7
20260503234003 23 142 3.2 6.4 0.00 0.00 0.00 47 1017.9
20260503233507 23 170 1.6 8.0 0.00 0.00 0.00 46 1018.8
20260503233007 23 197 1.6 8.0 0.00 0.00 0.00 43 1018.7
20260503232507 23 173 3.2 17.7 0.00 0.00 0.00 43 1017.8
20260503232503 23 232 0.0 8.0 0.00 0.00 0.00 43 1018.6
20260503232013 23 259 1.6 9.7 0.00 0.00 0.00 41 1018.5
20260503232006 23 134 3.2 20.9 0.00 0.00 0.00 41 1017.7
20260503231525 24 153 9.7 20.9 0.00 0.00 0.00 42 1017.7
20260503231522 24 149 1.6 9.7 0.00 0.00 0.00 42 1018.6
20260503231005 25 162 0.0 9.7 0.00 0.00 0.00 40 1018.6
20260503231003 25 164 4.8 16.1 0.00 0.00 0.00 40 1017.9
20260503230505 25 201 3.2 9.7 0.00 0.00 0.00 1018.6
20260503230503 25 196 9.7 17.7 0.00 0.00 0.00 1017.7
20260503230025 25 187 3.2 11.3 0.00 0.00 0.00 1018.7
20260503230008 25 181 11.3 24.1 0.00 0.00 0.00 1017.9
20260503225505 25 156 8.0 24.1 0.00 0.00 0.00 1018.1
20260503225501 25 190 1.6 11.3 0.00 0.00 0.00 1018.8
20260503225005 25 197 6.4 16.1 0.00 0.00 0.00 1018.0
20260503225002 25 204 1.6 8.0 0.00 0.00 0.00 1018.8
20260503224515 26 200 9.7 20.9 0.00 0.00 0.00 1018.1
20260503224511 26 192 4.8 8.0 0.00 0.00 0.00 1018.9
20260503224005 26 181 1.6 9.7 0.00 0.00 0.00 41 1018.9
20260503223505 26 174 3.2 9.7 0.00 0.00 0.00 41 1018.9
20260503223503 26 165 8.0 16.1 0.00 0.00 0.00 41 1018.1
20260503223018 25 159 8.0 16.1 0.00 0.00 0.00 40 1018.3
20260503222508 26 196 1.6 4.8 0.00 0.00 0.00 41 1019.1
20260503222506 26 167 6.4 16.1 0.00 0.00 0.00 41 1018.4
20260503222010 26 163 1.6 11.3 0.00 0.00 0.00 42 1019.1
20260503222003 26 157 4.8 16.1 0.00 0.00 0.00 42 1018.3
20260503221522 26 182 3.2 11.3 0.00 0.00 0.00 37 1019.1
20260503221515 26 206 9.7 16.1 0.00 0.00 0.00 37 1018.4
20260503221009 26 158 1.6 8.0 0.00 0.00 0.00 40 1019.2
20260503220512 26 171 9.7 19.3 0.00 0.00 0.00 38 1018.6
20260503220510 26 169 3.2 8.0 0.00 0.00 0.00 38 1019.2
20260503220028 26 144 6.4 12.9 0.00 0.00 0.00 41 1018.6
20260503220012 26 177 1.6 8.0 0.00 0.00 0.00 41 1019.3
20260503215510 26 202 8.0 12.9 0.00 0.00 0.00 36 1018.7
20260503215506 26 240 3.2 8.0 0.00 0.00 0.00 36 1019.4
20260503215008 26 235 1.6 8.0 0.00 0.00 0.00 37 1019.5
20260503215002 26 200 4.8 16.1 0.00 0.00 0.00 37 1018.9
20260503214511 25 135 3.2 16.1 0.00 0.00 0.00 40 1019.0
20260503214508 25 171 1.6 8.0 0.00 0.00 0.00 40 1019.6
20260503214008 26 173 1.6 8.0 0.00 0.00 0.00 43 1019.6
20260503214003 26 159 4.8 16.1 0.00 0.00 0.00 43 1019.1
20260503213507 26 136 3.2 17.7 0.00 0.00 0.00 39 1019.0
20260503213026 26 123 3.2 6.4 0.00 0.00 0.00 41 1019.7
20260503213017 26 167 4.8 17.7 0.00 0.00 0.00 41 1019.1
20260503212504 26 211 8.0 17.7 0.00 0.00 0.00 39 1019.3
20260503212010 27 172 12.9 17.7 0.00 0.00 0.00 38 1019.4
20260503212006 27 107 1.6 8.0 0.00 0.00 0.00 38 1020.1
20260503211522 27 200 4.8 19.3 0.00 0.00 0.00 38 1019.5
20260503211520 27 242 1.6 6.4 0.00 0.00 0.00 38 1020.2
20260503211011 27 190 1.6 8.0 0.00 0.00 0.00 39 1020.2
20260503211003 27 182 9.7 19.3 0.00 0.00 0.00 39 1019.6
20260503210507 26 144 3.2 19.3 0.00 0.00 0.00 36 1019.5
20260503210505 26 149 1.6 11.3 0.00 0.00 0.00 36 1020.1
20260503210021 27 133 4.8 17.7 0.00 0.00 0.00 37 1019.6
20260503205509 27 155 1.6 4.8 0.00 0.00 0.00 37 1020.2
20260503205507 27 143 4.8 11.3 0.00 0.00 0.00 37 1019.6
20260503205010 26 196 1.6 8.0 0.00 0.00 0.00 36 1020.3
20260503205004 26 211 6.4 12.9 0.00 0.00 0.00 36 1019.7
20260503204524 26 210 1.6 8.0 0.00 0.00 0.00 40 1020.4
20260503204522 26 174 6.4 16.1 0.00 0.00 0.00 40 1019.8
20260503204011 27 78 1.6 6.4 0.00 0.00 0.00 39 1020.5
20260503204004 27 136 9.7 16.1 0.00 0.00 0.00 39 1019.9
20260503203505 27 5 1.6 14.5 0.00 0.00 0.00 38 1020.1
20260503203502 27 104 3.2 8.0 0.00 0.00 0.00 38 1020.7
20260503203012 26 144 3.2 8.0 0.00 0.00 0.00 40 1020.7
20260503203010 26 185 3.2 14.5 0.00 0.00 0.00 40 1020.0
20260503202509 26 234 3.2 11.3 0.00 0.00 0.00 34 1020.7
20260503202506 26 207 4.8 12.9 0.00 0.00 0.00 34 1020.0
20260503202008 27 155 3.2 11.3 0.00 0.00 0.00 38 1020.8
20260503201524 27 146 3.2 9.7 0.00 0.00 0.00 40 1020.8
20260503201513 27 215 11.3 14.5 0.00 0.00 0.00 40 1020.2
20260503201008 27 182 3.2 9.7 0.00 0.00 0.00 40 1021.0
20260503200509 27 147 4.8 17.7 0.00 0.00 0.00 40 1020.4
20260503200507 27 159 3.2 8.0 0.00 0.00 0.00 40 1021.0
20260503200030 27 184 1.6 9.7 0.00 0.00 0.00 40 1021.1
20260503200024 27 180 9.7 17.7 0.00 0.00 0.00 40 1020.5
20260503195508 26 134 4.8 17.7 0.00 0.00 0.00 1020.4
20260503195506 26 198 3.2 9.7 0.00 0.00 0.00 1021.1
20260503195012 26 36 3.2 8.0 0.00 0.00 0.00 1021.3
20260503194529 27 122 1.6 6.4 0.00 0.00 0.00 1021.4
20260503194525 27 80 4.8 16.1 0.00 0.00 0.00 1020.6
20260503194010 27 191 1.6 9.7 0.00 0.00 0.00 1021.5
20260503194005 27 163 6.4 19.3 0.00 0.00 0.00 1020.7
20260503193508 27 90 3.2 19.3 0.00 0.00 0.00 38 1020.7
20260503193506 27 57 1.6 9.7 0.00 0.00 0.00 38 1021.5
20260503193022 26 217 1.6 9.7 0.00 0.00 0.00 38 1021.5
20260503193013 26 176 4.8 22.5 0.00 0.00 0.00 38 1020.9
20260503192505 27 151 6.4 22.5 0.00 0.00 0.00 40 1021.0
20260503192503 27 130 1.6 9.7 0.00 0.00 0.00 40 1021.7
20260503192010 26 267 3.2 9.7 0.00 0.00 0.00 38 1021.7
20260503192004 26 148 8.0 17.7 0.00 0.00 0.00 38 1021.1
20260503191528 27 128 4.8 16.1 0.00 0.00 0.00 41 1021.2
20260503191520 27 180 1.6 9.7 0.00 0.00 0.00 41 1021.8
20260503191007 26 146 3.2 9.7 0.00 0.00 0.00 38 1021.9
20260503191004 26 352 6.4 16.1 0.00 0.00 0.00 38 1021.3
20260503190507 26 156 1.6 8.0 0.00 0.00 0.00 42 1021.9
20260503190504 26 175 6.4 14.5 0.00 0.00 0.00 42 1021.4
20260503190023 26 192 1.6 9.7 0.00 0.00 0.00 39 1022.0
20260503190017 26 160 6.4 14.5 0.00 0.00 0.00 39 1021.4
20260503185507 26 201 6.4 16.1 0.00 0.00 0.00 38 1021.4
20260503185006 26 101 3.2 8.0 0.00 0.00 0.00 1022.1
20260503184521 26 186 3.2 6.4 0.00 0.00 0.00 38 1022.2
20260503184518 26 145 4.8 14.5 0.00 0.00 0.00 38 1021.5
20260503184010 26 158 6.4 12.9 0.00 0.00 0.00 38 1021.7
20260503184007 26 168 1.6 6.4 0.00 0.00 0.00 38 1022.2
20260503183517 26 183 1.6 8.0 0.00 0.00 0.00 39 1022.3
20260503183514 26 130 1.6 12.9 0.00 0.00 0.00 41 1021.7
20260503183025 26 135 3.2 8.0 0.00 0.00 0.00 36 1022.4
20260503183014 26 110 4.8 12.9 0.00 0.00 0.00 36 1021.9
20260503182507 26 202 1.6 9.7 0.00 0.00 0.00 38 1022.4
20260503182011 26 215 1.6 9.7 0.00 0.00 0.00 35 1022.6
20260503181525 26 119 1.6 6.4 0.00 0.00 0.00 39 1022.8
20260503181514 26 171 4.8 14.5 0.00 0.00 0.00 39 1022.2
20260503181005 26 146 1.6 20.9 0.00 0.00 0.00 39 1022.3
20260503180507 26 185 4.8 8.0 0.00 0.00 0.00 42 1022.9
20260503180021 26 152 4.8 14.5 0.00 0.00 0.00 41 1022.3
20260503180017 26 169 3.2 8.0 0.00 0.00 0.00 41 1023.0
20260503175507 26 103 3.2 8.0 0.00 0.00 0.00 46 1023.1
20260503175502 26 215 8.0 14.5 0.00 0.00 0.00 42 1022.4
20260503175010 26 62 1.6 6.4 0.00 0.00 0.00 40 1023.1
20260503175002 26 127 1.6 11.3 0.00 0.00 0.00 40 1022.4
20260503174524 26 84 1.6 11.3 0.00 0.00 0.00 48 1023.1
20260503174505 26 182 4.8 16.1 0.00 0.00 0.00 48 1022.5
20260503174006 25 210 1.6 11.3 0.00 0.00 0.00 42 1023.2
20260503173508 26 152 1.6 6.4 0.00 0.00 0.00 44 1023.4
20260503173503 26 156 8.0 16.1 0.00 0.00 0.00 44 1022.8
20260503173042 25 161 1.6 6.4 0.00 0.00 0.00 43 1023.4
20260503173002 25 81 3.2 12.9 0.00 0.00 0.00 43 1022.8
20260503172511 25 163 3.2 6.4 0.00 0.00 0.00 43 1023.6
20260503172505 25 148 4.8 12.9 0.00 0.00 0.00 43 1022.8
20260503172006 25 216 3.2 19.3 0.00 0.00 0.00 43 1023.0
20260503172003 25 111 1.6 6.4 0.00 0.00 0.00 43 1023.7
20260503171520 25 117 1.6 11.3 0.00 0.00 0.00 45 1023.9
20260503171503 25 144 3.2 19.3 0.00 0.00 0.00 45 1023.0
20260503171006 25 117 1.6 11.3 0.00 0.00 0.00 43 1023.9
20260503171003 25 86 1.6 14.5 0.00 0.00 0.00 43 1023.0
20260503170506 24 192 1.6 6.4 0.00 0.00 0.00 43 1023.9
20260503170503 24 153 6.4 16.1 0.00 0.00 0.00 43 1023.1